Showing default

IRIS-F2, 62684

Orbit data source: Space-Track

IRIS-F2, 62684 is a payload satellite owned by NCKU (TW) in SSO that was launched on Tue, 14 Jan 2025 UTC via an FALCON 9 launch vehicle from the Air Force Western Test Range (AFWTR). Payload-class satellites include a variety of spacecraft equipped with specific instruments for various scientific and technological missions. These include communications satellites like Starlink; space stations such as the ISS; scientific satellites like the Hubble; Earth observation satellites from companies like Planet Labs, Umbra, and HawkEye 360; GPS; miniature CubeSats for education and research; and military/defense satellites.

Loading next visibility...
Identifier
62684, 2025-009CD
Orbit
SSO
Country
Flag of TWTW / TWN
Related business
Manufacturer
NCKU
Mission
Operational Amateur Technology
Bus & Motor
CUBESAT 3U, Unknown motor
Mass
4 kg wet, 4 kg dry
Launch date (UTC)
2025-01-14 (2 years ago)
Launch vehicle
FALCON 9
Launch site
Air Force Western Test Range (AFWTR)
Object type
Payload
Rocket body
Debris
Shape & HBR
Box, 0.4 m
Radar Cross Section
0.035 m², Medium (>0.1 m² and < 1m²)

Expand to show TLE details & history
Last TLE update: 1 day ago

TLE from 1 day ago
0 IRIS-F2
1 62684U 25009CD  26237.17949674  .00014827  00000-0  53864-3 0  9990
2 62684  97.3858 316.3107 0006890 105.3406 254.8596 15.28365474146994
Epoch: 2026-08-25T04:18Z
TLE epoch observation values (Epoch: 2026-08-25T04:18:28.518Z)
Latitude
0.00003°
Longitude
-81.75869°
Altitude
485.038 km
Speed
7.622 km/s
True Right ascension
21h 05m 14s
True Declination
0° 00' 00"
Sunlit
Object was in full shadow at epoch
Visualization orbit readout
Latitude
Unknown
Longitude
Unknown
Altitude
Unknown
Speed
Unknown
Apparent Right ascension
Unknown
Apparent Declination
Unknown
Sunlit
N/A
Visualization observer readout
Local Sidereal Time
03:00:42
Azimuth
Unknown
Elevation
Unknown
Doppler factor
Unknown
Orbital elements
Apogee altitude
482.376 km
Perigee altitude
472.928 km
Semi-major axis
6,855.789 km
Eccentricity
0.00069
Inclination
97.3858°
RAAN
316.3107°
Arg. of periapsis
105.3406°
True anomaly
254.7834°
Mean anomaly
254.8596°
Eccentric anomaly
254.8215°
Mean motion
3.82346 °/min
Orbital period
94.16 mins
BSTAR
0.00053864
Loading maneuver chart data...
Computing Atmospheric mass density...
Loading historical data...
Loading historical data...
Loading historical data...
Loading historical data...
Loading historical data...
Loading historical data...
Loading historical data...

Documentation

Showing up to 5 results
|